Powrót do katalogu

STARLINK-37429

AktywnyŁącznośćVLEO
NORAD 69523·PAYLOAD·🇺🇸 United States

Wystrzelony Jun 12, 2026 z Cape Canaveral Space Force Station

Loading…

Następne Przeloty (najbliższe 24 godziny)

TLE

ŚwieżeSource: CelesTrak SupGP

Epoka: Sep 15, 2026, 04:04 UTC

1 69523C 26133R   26258.16993056 -.00031992  00000+0 -94523-3 0  2581
2 69523  53.1568 254.4885 0001250  84.8857  66.8241 15.34406322    17

Śledź STARLINK-37429 w czasie rzeczywistym z AllMySat

Download on the App Store